Charlevoix, MI

3:01 PM EDT on April 27, 2017 (GMT -0400)
Charlevoix Municipal

Weather History for KCVX - August, 2012

Change the Weather History Date:

Tuesday, August 28, 2012

  Actual Average Record
Temperature  
Mean Temperature 64 °F -  
Max Temperature 72 °F 77 °F 84 °F (2010)
Min Temperature 55 °F 57 °F 46 °F (2002)
Degree Days  
Heating Degree Days 1    
Growing Degree Days 14 (Base 50)    
Moisture  
Dew Point 56 °F    
Average Humidity 69    
Maximum Humidity 90    
Minimum Humidity 49    
Precipitation  
Precipitation 0.00 in - - ()
Sea Level Pressure  
Sea Level Pressure 30.14 in    
Wind  
Wind Speed 7 mph (NNW)    
Max Wind Speed 12 mph    
Max Gust Speed 18 mph    
Visibility 10 miles    
Events      
Averages and records for this station are not official NWS values.
T = Trace of Precipitation, MM = Missing Value Source: NWS Daily Summary

Daily Weather History Graph

Daily Weather History Graph

Search for Another Location

Airport or City:

Trip Planner

Search our weather history database for the weather conditions in past years. The results will help you decide how hot, cold, wet, or windy it might be!

Date:

Astronomy

Aug. 28, 2012 Rise Set
Actual Time 6:58 AM EDT 8:24 PM EDT
Civil Twilight 6:27 AM EDT 8:55 PM EDT
Nautical Twilight 5:50 AM EDT 9:32 PM EDT
Astronomical Twilight 5:10 AM EDT 10:12 PM EDT
Moon 6:31 PM EDT (8/28) 3:40 AM EDT (8/28)
Length of Visible Light 14h 27m
Length of Day
13h 26m
Waxing Gibbous, 90% of the Moon is Illuminated
Aug 28
Waxing Gibbous
Aug 31
Full
Sep 8
Last Quarter
Sep 15
New
Sep 22
First Quarter

Hourly Weather History & Observations

Time (EDT) Temp. Dew Point Humidity Pressure Visibility Wind Dir Wind Speed Gust Speed Precip Events Conditions
12:34 AM 66.7 °F 55.8 °F 68% 30.10 in 10.0 mi North 6.9 mph - N/A   Clear
12:54 AM 66.4 °F 56.8 °F 71% 30.11 in 10.0 mi NNW 5.8 mph - N/A   Clear
1:14 AM 66.4 °F 56.5 °F 70% 30.11 in 10.0 mi NW 6.9 mph - N/A   Clear
1:34 AM 65.7 °F 57.6 °F 75% 30.12 in 10.0 mi NW 5.8 mph - N/A   Clear
1:54 AM 66.0 °F 57.2 °F 73% 30.12 in 10.0 mi NW 8.1 mph - N/A   Clear
2:14 AM 66.2 °F 57.2 °F 73% 30.12 in 10.0 mi NNW 10.4 mph 16.1 mph N/A   Clear
2:34 AM 66.2 °F 56.7 °F 71% 30.11 in 10.0 mi NNW 9.2 mph 17.3 mph N/A   Clear
2:54 AM 66.4 °F 56.3 °F 70% 30.10 in 10.0 mi NNW 8.1 mph - N/A   Clear
3:14 AM 66.2 °F 56.3 °F 70% 30.11 in 10.0 mi NNW 9.2 mph - N/A   Clear
3:33 AM 66.4 °F 56.5 °F 70% 30.10 in 10.0 mi NNW 11.5 mph - N/A   Clear
3:54 AM 66.4 °F 56.8 °F 71% 30.10 in 10.0 mi NNW 11.5 mph 16.1 mph N/A   Clear
4:14 AM 66.2 °F 57.4 °F 73% 30.11 in 10.0 mi NNW 9.2 mph - N/A   Clear
4:34 AM 66.2 °F 57.2 °F 73% 30.12 in 10.0 mi NNW 10.4 mph 16.1 mph N/A   Clear
4:54 AM 66.2 °F 57.0 °F 72% 30.12 in 10.0 mi NNW 10.4 mph 18.4 mph N/A   Clear
5:14 AM 66.0 °F 57.2 °F 73% 30.12 in 10.0 mi NNW 10.4 mph - N/A   Clear
5:34 AM 66.0 °F 57.4 °F 74% 30.12 in 10.0 mi NNW 10.4 mph 17.3 mph N/A   Clear
5:54 AM 66.0 °F 58.1 °F 76% 30.12 in 10.0 mi NNW 9.2 mph 16.1 mph N/A   Clear
6:14 AM 65.7 °F 58.3 °F 77% 30.13 in 10.0 mi North 8.1 mph - N/A   Clear
6:34 AM 65.3 °F 59.0 °F 80% 30.13 in 10.0 mi North 8.1 mph - N/A   Clear
6:54 AM 65.1 °F 59.7 °F 83% 30.13 in 10.0 mi North 6.9 mph - N/A   Scattered Clouds
7:14 AM 65.3 °F 59.9 °F 83% 30.14 in 10.0 mi North 6.9 mph - N/A   Scattered Clouds
7:34 AM 65.7 °F 59.9 °F 82% 30.14 in 10.0 mi North 5.8 mph - N/A   Mostly Cloudy
7:55 AM 66.4 °F 59.9 °F 80% 30.14 in 10.0 mi North 8.1 mph - N/A   Mostly Cloudy
8:14 AM 66.2 °F 60.1 °F 81% 30.15 in 10.0 mi North 6.9 mph - N/A   Scattered Clouds
8:34 AM 66.6 °F 60.6 °F 81% 30.15 in 10.0 mi NNW 5.8 mph - N/A   Scattered Clouds
8:54 AM 67.3 °F 60.1 °F 78% 30.16 in 10.0 mi North 6.9 mph - N/A   Mostly Cloudy
9:14 AM 68.4 °F 60.3 °F 75% 30.15 in 10.0 mi North 8.1 mph - N/A   Mostly Cloudy
9:34 AM 68.0 °F 60.1 °F 76% 30.16 in 10.0 mi North 5.8 mph - N/A   Scattered Clouds
9:54 AM 68.7 °F 60.1 °F 74% 30.16 in 10.0 mi NNW 5.8 mph - N/A   Clear
10:34 AM 69.3 °F 60.4 °F 73% 30.16 in 10.0 mi North 5.8 mph - N/A   Clear
10:54 AM 69.4 °F 60.4 °F 73% 30.17 in 10.0 mi NNW 8.1 mph - N/A   Clear
11:14 AM 69.6 °F 60.3 °F 72% 30.18 in 10.0 mi NNW 6.9 mph - N/A   Scattered Clouds
11:34 AM 69.8 °F 60.4 °F 72% 30.18 in 10.0 mi NNW 6.9 mph - N/A   Scattered Clouds
11:54 AM 70.0 °F 60.3 °F 71% 30.19 in 10.0 mi North 6.9 mph - N/A   Clear
12:14 PM 70.2 °F 59.2 °F 68% 30.18 in 10.0 mi NNW 6.9 mph - N/A   Clear
12:34 PM 70.5 °F 59.2 °F 67% 30.18 in 10.0 mi NW 9.2 mph - N/A   Clear
12:54 PM 70.7 °F 58.8 °F 66% 30.18 in 10.0 mi NNW 6.9 mph - N/A   Clear
1:14 PM 70.9 °F 58.6 °F 65% 30.17 in 10.0 mi North 5.8 mph - N/A   Clear
1:34 PM 70.5 °F 58.3 °F 65% 30.17 in 10.0 mi NW 9.2 mph - N/A   Clear
1:54 PM 71.4 °F 58.1 °F 63% 30.17 in 10.0 mi NNW 10.4 mph - N/A   Clear
2:14 PM 71.4 °F 57.0 °F 60% 30.17 in 10.0 mi North 9.2 mph - N/A   Clear
2:34 PM 72.0 °F 56.5 °F 58% 30.16 in 10.0 mi NNW 9.2 mph - N/A   Clear
2:54 PM 72.0 °F 55.2 °F 55% 30.16 in 10.0 mi NW 10.4 mph - N/A   Clear
3:14 PM 72.0 °F 54.0 °F 53% 30.16 in 10.0 mi NW 9.2 mph - N/A   Clear
3:34 PM 71.8 °F 53.6 °F 53% 30.15 in 10.0 mi NNW 6.9 mph - N/A   Clear
3:54 PM 72.7 °F 53.2 °F 50% 30.15 in 10.0 mi NNW 6.9 mph - N/A   Clear
4:19 PM 72.3 °F 52.2 °F 49% 30.14 in 10.0 mi NW 9.2 mph - N/A   Clear
4:34 PM 72.3 °F 52.5 °F 50% 30.14 in 10.0 mi NNW 6.9 mph - N/A   Clear
4:54 PM 72.1 °F 52.3 °F 50% 30.14 in 10.0 mi North 4.6 mph - N/A   Clear
5:14 PM 72.1 °F 52.5 °F 50% 30.14 in 10.0 mi NW 6.9 mph - N/A   Clear
5:34 PM 72.1 °F 53.4 °F 52% 30.14 in 10.0 mi NW 4.6 mph - N/A   Scattered Clouds
5:54 PM 71.4 °F 52.0 °F 50% 30.14 in 10.0 mi NNW 5.8 mph - N/A   Scattered Clouds
6:14 PM 70.9 °F 52.7 °F 53% 30.13 in 10.0 mi North 3.5 mph - N/A   Clear
6:34 PM 70.5 °F 52.2 °F 52% 30.12 in 10.0 mi NNW 3.5 mph - N/A   Clear
6:54 PM 70.5 °F 52.7 °F 53% 30.12 in 10.0 mi NNW 3.5 mph - N/A   Clear
7:14 PM 70.0 °F 52.7 °F 54% 30.12 in 10.0 mi NNW 3.5 mph - N/A   Clear
7:34 PM 69.3 °F 51.4 °F 53% 30.12 in 10.0 mi Calm Calm - N/A   Clear
7:54 PM 68.5 °F 52.0 °F 55% 30.11 in 10.0 mi Calm Calm - N/A   Clear
8:14 PM 68.0 °F 52.7 °F 58% 30.10 in 10.0 mi Calm Calm - N/A   Clear
8:34 PM 63.7 °F 53.4 °F 69% 30.11 in 10.0 mi Calm Calm - N/A   Clear
8:54 PM 62.6 °F 53.6 °F 72% 30.10 in 10.0 mi Calm Calm - N/A   Clear
9:14 PM 60.1 °F 53.8 °F 80% 30.11 in 10.0 mi Calm Calm - N/A   Clear
9:34 PM 59.5 °F 53.6 °F 81% 30.12 in 10.0 mi Calm Calm - N/A   Clear
9:54 PM 58.1 °F 53.1 °F 83% 30.12 in 10.0 mi Calm Calm - N/A   Clear
10:15 PM 58.5 °F 53.1 °F 82% 30.12 in 10.0 mi Calm Calm - N/A   Clear
10:34 PM 57.4 °F 52.3 °F 83% 30.12 in 10.0 mi Calm Calm - N/A   Clear
10:54 PM 57.0 °F 52.5 °F 85% 30.12 in 10.0 mi Calm Calm - N/A   Clear
11:14 PM 57.0 °F 52.2 °F 84% 30.13 in 10.0 mi Calm Calm - N/A   Clear
11:34 PM 56.3 °F 52.3 °F 87% 30.13 in 10.0 mi Calm Calm - N/A   Clear
11:55 PM 55.2 °F 52.3 °F 90% 30.13 in 10.0 mi Calm Calm - N/A   Clear